| time (UTC) | temp C | wind direction | speed KPH | gust KPH | rain 1hr cm | rain 24hr cm | rain mn cm | humidity % | barometer mb |
| 20260505183029 | 13 | 313 | 0.0 | 4.8 | 0.00 | 0.00 | 0.00 | 73 | 1011.7 |
| 20260505181535 | 13 | 0 | 0.0 | 3.2 | 0.00 | 0.00 | 0.00 | 73 | 1011.6 |
| 20260505180029 | 13 | 0 | 1.6 | 4.8 | 0.00 | 0.00 | 0.00 | 73 | 1011.7 |
| 20260505174538 | 13 | 0 | 1.6 | 8.0 | 0.00 | 0.00 | 0.00 | 72 | 1011.8 |
| 20260505173030 | 13 | 306 | 1.6 | 9.7 | 0.00 | 0.00 | 0.00 | 71 | 1011.9 |
| 20260505171533 | 13 | 308 | 3.2 | 12.9 | 0.00 | 0.00 | 0.00 | 71 | 1011.9 |
| 20260505170036 | 13 | 332 | 3.2 | 11.3 | 0.00 | 0.00 | 0.00 | 71 | 1012.0 |
| 20260505164529 | 13 | 298 | 3.2 | 11.3 | 0.00 | 0.00 | 0.00 | 69 | 1012.0 |
| 20260505163034 | 13 | 120 | 1.6 | 8.0 | 0.00 | 0.00 | 0.00 | 68 | 1011.9 |
| 20260505161530 | 13 | 1 | 1.6 | 8.0 | 0.00 | 0.00 | 0.00 | 69 | 1012.0 |
| 20260505153035 | 13 | 1 | 0.0 | 8.0 | 0.00 | 0.00 | 0.00 | 70 | 1012.1 |
| 20260505151545 | 13 | 296 | 1.6 | 6.4 | 0.00 | 0.00 | 0.00 | 70 | 1012.1 |
| 20260505124532 | 13 | 0 | 1.6 | 8.0 | 0.00 | 0.00 | 0.00 | 72 | 1012.8 |
| 20260505123033 | 13 | 308 | 3.2 | 11.3 | 0.00 | 0.00 | 0.00 | 70 | 1012.7 |
| 20260505121531 | 12 | 321 | 1.6 | 12.9 | 0.00 | 0.00 | 0.00 | 73 | 1012.7 |
| 20260505120038 | 12 | 29 | 4.8 | 12.9 | 0.00 | 0.00 | 0.00 | 74 | 1012.9 |
| 20260505114530 | 12 | 316 | 3.2 | 12.9 | 0.00 | 0.00 | 0.00 | 77 | 1012.9 |
| 20260505113030 | 12 | 25 | 3.2 | 11.3 | 0.00 | 0.00 | 0.00 | 76 | 1012.9 |
| 20260505111532 | 12 | 32 | 4.8 | 12.9 | 0.00 | 0.00 | 0.00 | 77 | 1013.0 |
| 20260505101532 | 11 | 28 | 4.8 | 16.1 | 0.00 | 0.00 | 0.00 | 78 | 1013.2 |
| 20260505100034 | 11 | 72 | 4.8 | 14.5 | 0.00 | 0.00 | 0.00 | 79 | 1013.4 |
| 20260505094530 | 11 | 337 | 1.6 | 9.7 | 0.00 | 0.00 | 0.00 | 83 | 1013.4 |
| 20260505093040 | 11 | 58 | 3.2 | 14.5 | 0.00 | 0.00 | 0.00 | 83 | 1013.4 |
| 20260505091532 | 11 | 25 | 4.8 | 16.1 | 0.00 | 0.00 | 0.00 | 82 | 1013.6 |
| 20260505090038 | 11 | 72 | 6.4 | 16.1 | 0.00 | 0.00 | 0.00 | 82 | 1013.5 |
| 20260505084532 | 11 | 309 | 6.4 | 12.9 | 0.00 | 0.00 | 0.00 | 83 | 1013.4 |
| 20260505083033 | 11 | 29 | 6.4 | 14.5 | 0.00 | 0.00 | 0.00 | 82 | 1013.6 |
| 20260505081532 | 11 | 7 | 3.2 | 16.1 | 0.00 | 0.00 | 0.00 | 83 | 1013.6 |
| 20260505080030 | 11 | 13 | 4.8 | 19.3 | 0.00 | 0.00 | 0.00 | 82 | 1013.5 |
| 20260505074531 | 11 | 292 | 4.8 | 17.7 | 0.00 | 0.00 | 0.00 | 84 | 1013.5 |
| 20260505073037 | 11 | 330 | 3.2 | 12.9 | 0.00 | 0.00 | 0.00 | 86 | 1013.3 |
| 20260505071529 | 11 | 316 | 1.6 | 8.0 | 0.00 | 0.00 | 0.00 | 88 | 1013.5 |
| 20260505070032 | 10 | 299 | 1.6 | 8.0 | 0.00 | 0.00 | 0.00 | 89 | 1013.6 |
| 20260505064531 | 10 | 321 | 1.6 | 8.0 | 0.00 | 0.00 | 0.00 | 89 | 1013.6 |
| 20260505063038 | 10 | 34 | 1.6 | 9.7 | 0.00 | 0.00 | 0.00 | 90 | 1013.6 |
| 20260505061531 | 10 | 0 | 1.6 | 9.7 | 0.00 | 0.00 | 0.00 | 92 | 1013.5 |
| 20260505060034 | 10 | 0 | 0.0 | 4.8 | 0.00 | 0.00 | 0.00 | 93 | 1013.8 |
| 20260505054537 | 9 | 44 | 0.0 | 4.8 | 0.00 | 0.00 | 0.00 | 92 | 1013.5 |
| 20260505053041 | 8 | 18 | 1.6 | 6.4 | 0.00 | 0.00 | 0.00 | 93 | 1013.6 |
| 20260505051535 | 8 | 0 | 1.6 | 8.0 | 0.00 | 0.00 | 0.00 | 92 | 1013.6 |
| 20260505041532 | 9 | 323 | 0.0 | 4.8 | 0.00 | 0.00 | 0.00 | 91 | 1013.8 |
| 20260505040030 | 9 | 0 | 0.0 | 3.2 | 0.00 | 0.00 | 0.00 | 91 | 1013.7 |
| 20260505034532 | 9 | 0 | 0.0 | 3.2 | 0.00 | 0.00 | 0.00 | 91 | 1013.7 |
| 20260505033045 | 9 | 0 | 0.0 | 3.2 | 0.00 | 0.00 | 0.00 | 90 | 1013.8 |
| 20260505031533 | 10 | 0 | 0.0 | 3.2 | 0.00 | 0.00 | 0.00 | 90 | 1013.9 |
| 20260505030030 | 10 | 29 | 1.6 | 6.4 | 0.00 | 0.00 | 0.00 | 90 | 1013.9 |
| 20260505024530 | 10 | 0 | 0.0 | 4.8 | 0.00 | 0.00 | 0.00 | 90 | 1013.9 |
| 20260505023029 | 10 | 0 | 0.0 | 4.8 | 0.00 | 0.00 | 0.00 | 90 | 1013.9 |
| 20260505021529 | 10 | 0 | 0.0 | 3.2 | 0.00 | 0.00 | 0.00 | 90 | 1013.8 |
| 20260505020030 | 10 | 19 | 0.0 | 4.8 | 0.00 | 0.00 | 0.00 | 89 | 1013.9 |
| 20260505014533 | 10 | 0 | 0.0 | 3.2 | 0.00 | 0.00 | 0.00 | 89 | 1014.1 |
| 20260505013031 | 10 | 30 | 0.0 | 3.2 | 0.00 | 0.00 | 0.00 | 89 | 1014.1 |
| 20260505011532 | 10 | 0 | 0.0 | 0.0 | 0.00 | 0.00 | 0.00 | 88 | 1014.3 |
| 20260505010031 | 10 | 0 | 0.0 | 3.2 | 0.00 | 0.00 | 0.00 | 88 | 1014.3 |
| 20260505004542 | 10 | 0 | 0.0 | 1.6 | 0.00 | 0.00 | 0.00 | 88 | 1014.4 |
| 20260505003030 | 11 | 0 | 0.0 | 6.4 | 0.00 | 0.00 | 0.00 | 87 | 1014.5 |
| 20260505001532 | 11 | 0 | 1.6 | 8.0 | 0.00 | 0.00 | 0.00 | 87 | 1014.5 |
| 20260505000031 | 11 | 14 | 3.2 | 8.0 | 0.00 | 0.00 | 0.00 | 87 | 1014.7 |
| 20260504234536 | 11 | 68 | 1.6 | 8.0 | 0.00 | 0.00 | 0.00 | 86 | 1014.7 |
| 20260504233031 | 11 | 46 | 1.6 | 9.7 | 0.00 | 0.00 | 0.00 | 86 | 1014.7 |
| 20260504231542 | 11 | 42 | 0.0 | 6.4 | 0.00 | 0.00 | 0.00 | 86 | 1014.7 |
| 20260504230030 | 11 | 62 | 0.0 | 8.0 | 0.00 | 0.00 | 0.00 | 86 | 1014.6 |
| 20260504224532 | 11 | 0 | 0.0 | 4.8 | 0.00 | 0.00 | 0.00 | 86 | 1014.8 |
| 20260504223030 | 11 | 15 | 1.6 | 4.8 | 0.00 | 0.00 | 0.00 | 87 | 1014.9 |
| 20260504221530 | 12 | 6 | 0.0 | 4.8 | 0.00 | 0.00 | 0.00 | 87 | 1014.9 |
| 20260504220031 | 12 | 0 | 0.0 | 3.2 | 0.00 | 0.00 | 0.00 | 87 | 1015.1 |
| 20260504214537 | 12 | 346 | 0.0 | 4.8 | 0.00 | 0.00 | 0.00 | 87 | 1015.0 |
| 20260504213032 | 12 | 0 | 0.0 | 3.2 | 0.00 | 0.00 | 0.00 | 86 | 1015.1 |
| 20260504211530 | 12 | 0 | 1.6 | 4.8 | 0.00 | 0.00 | 0.00 | 86 | 1015.0 |
| 20260504210030 | 12 | 25 | 0.0 | 4.8 | 0.00 | 0.00 | 0.00 | 86 | 1015.0 |
| 20260504204604 | 12 | 0 | 0.0 | 1.6 | 0.00 | 0.00 | 0.00 | 86 | 1015.0 |
| 20260504203032 | 12 | 0 | 0.0 | 4.8 | 0.00 | 0.00 | 0.00 | 85 | 1015.0 |
| 20260504201530 | 12 | 77 | 0.0 | 6.4 | 0.00 | 0.00 | 0.00 | 85 | 1014.9 |
| 20260504200035 | 12 | 0 | 0.0 | 4.8 | 0.00 | 0.00 | 0.00 | 85 | 1014.8 |
| 20260504194534 | 12 | 0 | 0.0 | 8.0 | 0.00 | 0.00 | 0.00 | 84 | 1014.8 |
| 20260504193033 | 12 | 0 | 0.0 | 3.2 | 0.00 | 0.00 | 0.00 | 84 | 1014.7 |
| 20260504191531 | 12 | 26 | 0.0 | 6.4 | 0.00 | 0.00 | 0.00 | 84 | 1014.6 |
| 20260504190035 | 13 | 23 | 0.0 | 4.8 | 0.00 | 0.00 | 0.00 | 83 | 1014.5 |
| 20260504184532 | 13 | 0 | 1.6 | 8.0 | 0.00 | 0.00 | 0.00 | 83 | 1014.5 |